Location: Follega
(52.8850°N, 5.7362°E)
Time: 00:27:56
(UTC+00:00)

Cosmos 2297 Rocket - Pass Details

Date: 05 October 2020
Orbit: 838 x 845 km, 71.0° (Epoch: 22 October)

Event Time Altitude Azimuth Distance (km) Brightness Sun altitude
Rises 18:18:27 0° 314° (NW) 3,414 6.3 -12.1°
Reaches altitude 10° 18:22:30 10° 342° (NNW) 2,479 5.0 -12.7°
Maximum altitude 18:25:01 13° 9° (N) 2,274 4.5 -13.1°
Drops below altitude 10° 18:27:33 10° 35° (NE) 2,478 4.4 -13.5°
Enters shadow 18:29:25 - 51° (NE) 2,844 4.6 -13.7°
